Southern Pines, NC

1:51 PM EDT on March 29, 2017 (GMT -0400)
Moore County

Weather History for KSOP - November, 2012

Change the Weather History Date:

Monday, November 19, 2012

  Actual Average Record
Temperature  
Mean Temperature 52 °F -  
Max Temperature 59 °F 59 °F 75 °F (2004)
Min Temperature 44 °F 37 °F 14 °F (2014)
Degree Days  
Heating Degree Days 14    
Growing Degree Days 2 (Base 50)    
Moisture  
Dew Point 42 °F    
Average Humidity 68    
Maximum Humidity 81    
Minimum Humidity 59    
Precipitation  
Precipitation 0.01 in - - ()
Sea Level Pressure  
Sea Level Pressure 30.25 in    
Wind  
Wind Speed 8 mph (NNE)    
Max Wind Speed 15 mph    
Max Gust Speed 23 mph    
Visibility 10 miles    
Events      
Averages and records for this station are not official NWS values.
T = Trace of Precipitation, MM = Missing Value Source: NWS Daily Summary

Daily Weather History Graph

Daily Weather History Graph

Search for Another Location

Airport or City:

Trip Planner

Search our weather history database for the weather conditions in past years. The results will help you decide how hot, cold, wet, or windy it might be!

Date:

Astronomy

Nov. 19, 2012 Rise Set
Actual Time 6:56 AM EST 5:08 PM EST
Civil Twilight 6:29 AM EST 5:36 PM EST
Nautical Twilight 5:58 AM EST 6:07 PM EST
Astronomical Twilight 5:28 AM EST 6:37 PM EST
Moon 12:03 PM EST (11/19) 11:28 PM EST (11/19)
Length of Visible Light 11h 06m
Length of Day
10h 12m
Waxing Crescent, 40% of the Moon is Illuminated
Nov 19
Waxing Crescent
Nov 20
First Quarter
Nov 28
Full
Dec 6
Last Quarter
Dec 13
New

Hourly Weather History & Observations

Time (EST) Temp. Dew Point Humidity Pressure Visibility Wind Dir Wind Speed Gust Speed Precip Events Conditions
12:15 AM 51.8 °F 42.8 °F 71% 30.31 in 10.0 mi NNE 6.9 mph 16.1 mph N/A   Overcast
12:35 AM 51.8 °F 41.0 °F 67% 30.31 in 10.0 mi NE 15.0 mph 20.7 mph N/A   Overcast
12:55 AM 51.8 °F 42.8 °F 71% 30.31 in 10.0 mi NNE 8.1 mph 16.1 mph N/A   Overcast
1:15 AM 51.8 °F 41.0 °F 67% 30.30 in 10.0 mi NNE 9.2 mph 16.1 mph N/A   Overcast
1:35 AM 51.8 °F 41.0 °F 67% 30.29 in 10.0 mi NNE 10.4 mph - N/A   Overcast
1:55 AM 51.8 °F 41.0 °F 67% 30.29 in 10.0 mi NNE 10.4 mph 18.4 mph N/A   Overcast
2:15 AM 51.8 °F 41.0 °F 67% 30.29 in 10.0 mi NE 9.2 mph 17.3 mph N/A   Overcast
2:35 AM 51.8 °F 41.0 °F 67% 30.30 in 10.0 mi NE 11.5 mph 17.3 mph N/A   Overcast
2:55 AM 50.0 °F 41.0 °F 71% 30.29 in 10.0 mi NNE 9.2 mph 17.3 mph N/A   Overcast
3:15 AM 50.0 °F 41.0 °F 71% 30.28 in 10.0 mi NE 10.4 mph 20.7 mph N/A   Overcast
3:35 AM 50.0 °F 41.0 °F 71% 30.28 in 10.0 mi NNE 10.4 mph 19.6 mph N/A   Overcast
3:55 AM 50.0 °F 41.0 °F 71% 30.27 in 10.0 mi NNE 9.2 mph 18.4 mph N/A   Overcast
4:15 AM 50.0 °F 41.0 °F 71% 30.27 in 10.0 mi NNE 9.2 mph - N/A   Overcast
4:35 AM 50.0 °F 41.0 °F 71% 30.27 in 10.0 mi NE 8.1 mph - N/A   Overcast
4:55 AM 50.0 °F 41.0 °F 71% 30.28 in 10.0 mi NE 11.5 mph 18.4 mph N/A   Overcast
5:15 AM 50.0 °F 41.0 °F 71% 30.28 in 10.0 mi NE 11.5 mph - N/A   Overcast
5:35 AM 48.2 °F 41.0 °F 76% 30.28 in 10.0 mi NNE 8.1 mph 17.3 mph N/A   Overcast
5:55 AM 48.2 °F 41.0 °F 76% 30.28 in 10.0 mi NNE 9.2 mph 16.1 mph N/A   Overcast
6:15 AM 48.2 °F 41.0 °F 76% 30.28 in 10.0 mi NNE 8.1 mph - N/A   Overcast
6:35 AM 48.2 °F 41.0 °F 76% 30.29 in 10.0 mi NNE 8.1 mph 16.1 mph N/A   Overcast
6:55 AM 48.2 °F 39.2 °F 71% 30.28 in 10.0 mi NNE 9.2 mph 16.1 mph N/A   Overcast
7:15 AM 48.2 °F 39.2 °F 71% 30.28 in 10.0 mi NE 10.4 mph - N/A   Overcast
7:35 AM 48.2 °F 39.2 °F 71% 30.29 in 10.0 mi NNE 10.4 mph 18.4 mph N/A   Overcast
7:55 AM 48.2 °F 39.2 °F 71% 30.29 in 10.0 mi NNE 6.9 mph 16.1 mph N/A   Overcast
8:35 AM 50.0 °F 39.2 °F 66% 30.29 in 10.0 mi NNE 8.1 mph - N/A   Overcast
8:55 AM 51.8 °F 41.0 °F 67% 30.29 in 10.0 mi NNE 11.5 mph 16.1 mph N/A   Overcast
9:15 AM 51.8 °F 41.0 °F 67% 30.29 in 10.0 mi NE 9.2 mph 18.4 mph N/A   Overcast
9:35 AM 51.8 °F 42.8 °F 71% 30.29 in 10.0 mi NE 8.1 mph 23.0 mph N/A   Overcast
9:55 AM 53.6 °F 42.8 °F 67% 30.29 in 10.0 mi NE 6.9 mph 18.4 mph N/A   Overcast
10:15 AM 53.6 °F 42.8 °F 67% 30.29 in 10.0 mi NNE 10.4 mph 16.1 mph N/A   Overcast
10:35 AM 53.6 °F 42.8 °F 67% 30.28 in 10.0 mi NNE 11.5 mph 17.3 mph N/A   Overcast
10:55 AM 53.6 °F 42.8 °F 67% 30.28 in 10.0 mi NNE 5.8 mph - N/A   Overcast
11:15 AM 53.6 °F 42.8 °F 67% 30.28 in 10.0 mi NNE 6.9 mph 16.1 mph N/A   Overcast
11:35 AM 55.4 °F 44.6 °F 67% 30.27 in 10.0 mi NE 10.4 mph - N/A   Overcast
11:55 AM 55.4 °F 44.6 °F 67% 30.26 in 10.0 mi NNE 4.6 mph - N/A   Overcast
12:15 PM 57.2 °F 44.6 °F 63% 30.25 in 10.0 mi NNE 9.2 mph - N/A   Overcast
12:35 PM 57.2 °F 44.6 °F 63% 30.24 in 10.0 mi North 6.9 mph - N/A   Overcast
12:55 PM 57.2 °F 44.6 °F 63% 30.23 in 10.0 mi NNE 9.2 mph - N/A   Overcast
1:15 PM 57.2 °F 44.6 °F 63% 30.22 in 10.0 mi NNE 10.4 mph 18.4 mph N/A   Overcast
1:35 PM 57.2 °F 44.6 °F 63% 30.22 in 10.0 mi NE 9.2 mph - N/A   Overcast
1:55 PM 57.2 °F 44.6 °F 63% 30.21 in 10.0 mi NE 11.5 mph 16.1 mph N/A   Overcast
2:15 PM 59.0 °F 44.6 °F 59% 30.21 in 10.0 mi NE 8.1 mph - N/A   Overcast
2:35 PM 59.0 °F 44.6 °F 59% 30.20 in 10.0 mi NNE 9.2 mph 16.1 mph N/A   Overcast
2:55 PM 59.0 °F 44.6 °F 59% 30.20 in 10.0 mi NE 9.2 mph - N/A   Overcast
3:15 PM 59.0 °F 44.6 °F 59% 30.20 in 10.0 mi NNE 8.1 mph - N/A   Overcast
3:35 PM 59.0 °F 44.6 °F 59% 30.20 in 10.0 mi NNE 6.9 mph - N/A   Overcast
3:55 PM 57.2 °F 44.6 °F 63% 30.20 in 10.0 mi North 4.6 mph - N/A   Overcast
4:15 PM 57.2 °F 44.6 °F 63% 30.20 in 10.0 mi North 6.9 mph - N/A   Partly Cloudy
4:35 PM 57.2 °F 42.8 °F 59% 30.20 in 10.0 mi NNE 8.1 mph - N/A   Clear
4:55 PM 57.2 °F 42.8 °F 59% 30.20 in 10.0 mi North 6.9 mph 16.1 mph N/A   Mostly Cloudy
5:15 PM 55.4 °F 42.8 °F 63% 30.20 in 10.0 mi NNE 3.5 mph - N/A   Mostly Cloudy
5:35 PM 53.6 °F 42.8 °F 67% 30.20 in 10.0 mi NE 5.8 mph - N/A   Partly Cloudy
5:55 PM 53.6 °F 42.8 °F 67% 30.20 in 10.0 mi NNE 5.8 mph - N/A   Clear
6:15 PM 53.6 °F 42.8 °F 67% 30.21 in 10.0 mi NNE 4.6 mph - N/A   Clear
6:35 PM 53.6 °F 42.8 °F 67% 30.22 in 10.0 mi North 3.5 mph - N/A   Clear
6:55 PM 51.8 °F 42.8 °F 71% 30.22 in 10.0 mi Calm Calm - N/A   Clear
7:15 PM 51.8 °F 42.8 °F 71% 30.22 in 10.0 mi North 4.6 mph - N/A   Clear
7:35 PM 51.8 °F 41.0 °F 67% 30.22 in 10.0 mi NNE 3.5 mph - N/A   Clear
7:55 PM 51.8 °F 41.0 °F 67% 30.21 in 10.0 mi NNE 5.8 mph - N/A   Clear
8:15 PM 51.8 °F 41.0 °F 67% 30.22 in 10.0 mi NNE 3.5 mph - N/A   Clear
8:35 PM 50.0 °F 39.2 °F 66% 30.21 in 10.0 mi NNE 6.9 mph - N/A   Clear
8:55 PM 50.0 °F 39.2 °F 66% 30.20 in 10.0 mi NNE 6.9 mph - N/A   Clear
9:15 PM 48.2 °F 39.2 °F 71% 30.20 in 10.0 mi NNE 4.6 mph - N/A   Clear
9:35 PM 48.2 °F 39.2 °F 71% 30.19 in 10.0 mi NNE 8.1 mph - N/A   Clear
10:15 PM 48.2 °F 39.2 °F 71% 30.18 in 10.0 mi NNE 4.6 mph - N/A   Clear
10:35 PM 48.2 °F 39.2 °F 71% 30.18 in 10.0 mi North 3.5 mph - N/A   Clear
10:55 PM 46.4 °F 39.2 °F 76% 30.18 in 10.0 mi Calm Calm - N/A   Clear
11:15 PM 46.4 °F 39.2 °F 76% 30.17 in 10.0 mi Calm Calm - N/A   Clear
11:35 PM 44.6 °F 39.2 °F 81% 30.17 in 10.0 mi Calm Calm - N/A   Clear
11:55 PM 44.6 °F 39.2 °F 81% 30.17 in 10.0 mi Calm Calm - N/A   Clear